CST,Max TemperatureF,Mean TemperatureF,Min TemperatureF,Max Dew PointF,MeanDew PointF,Min DewpointF,Max Humidity, Mean Humidity, Min Humidity, Max Sea Level PressureIn, Mean Sea Level PressureIn, Min Sea Level PressureIn, Max VisibilityMiles, Mean VisibilityMiles, Min VisibilityMiles, Max Wind SpeedMPH, Mean Wind SpeedMPH, Max Gust SpeedMPH,PrecipitationIn, CloudCover, Events, WindDirDegrees
2012-11-1,73,55,37,43,40,36,93,65,29,30.06,30.00,29.93,10,9,2,8,2,,0.00,0,,208
2012-11-2,80,60,42,55,49,41,96,70,39,29.97,29.91,29.86,10,10,10,14,3,20,0.00,0,,184
2012-11-3,66,56,43,53,42,36,80,62,41,30.16,30.05,29.89,10,10,10,13,8,17,0.00,0,,337
2012-11-4,66,50,37,42,38,35,96,69,35,30.21,30.15,30.07,10,9,5,5,2,,0.00,0,,48
2012-11-5,59,52,44,47,43,40,93,78,58,30.08,30.03,29.99,10,10,9,16,8,24,0.00,6,Rain,288
2012-11-6,57,50,42,43,39,29,100,76,51,30.12,30.07,30.01,10,9,6,12,6,18,0.00,4,,315
2012-11-7,59,48,36,34,30,28,79,58,31,30.17,30.12,30.07,10,10,10,14,6,22,0.00,0,,322
2012-11-8,66,51,36,43,37,31,86,60,33,30.14,30.06,29.98,10,10,10,20,7,29,0.00,0,,159
2012-11-9,72,63,54,57,54,44,88,72,59,30.02,29.95,29.88,10,10,10,23,14,29,0.00,1,,180
2012-11-10,73,66,59,56,54,50,81,66,47,29.99,29.90,29.81,10,10,10,23,17,33,0.00,0,,178
2012-11-11,66,49,32,60,46,28,100,88,73,30.25,29.94,29.77,10,7,1,29,14,41,0.76,8,Rain,310
2012-11-12,46,36,25,27,23,19,89,67,37,30.49,30.43,30.28,10,10,10,14,5,21,0.00,0,,278
2012-11-13,53,40,27,30,25,21,92,60,30,30.53,30.45,30.36,10,10,9,6,2,,0.00,0,,159
2012-11-14,54,42,30,30,27,24,85,60,33,30.44,30.37,30.31,10,10,10,5,1,,0.00,0,,182
2012-11-15,57,44,30,34,30,26,88,64,33,30.37,30.33,30.30,10,10,10,5,0,,0.00,0,,344
2012-11-16,60,45,30,36,32,30,96,66,32,30.45,30.40,30.36,10,10,7,6,1,,0.00,0,,90
2012-11-17,62,48,33,33,29,27,85,58,29,30.44,30.37,30.32,10,10,10,12,2,,0.00,0,,164
2012-11-18,64,50,35,37,31,28,76,53,27,30.33,30.27,30.21,10,10,10,13,4,,0.00,1,,169
2012-11-19,62,54,46,47,44,38,97,74,53,30.23,30.18,30.12,10,10,9,16,8,22,0.10,4,Rain,184
2012-11-20,68,56,43,51,43,39,97,72,39,30.22,30.18,30.14,10,10,9,12,5,,0.00,0,,296
2012-11-21,71,54,36,45,38,35,100,66,27,30.29,30.20,30.10,10,9,4,9,2,,0.00,0,,185
2012-11-22,66,57,48,48,44,38,74,60,47,30.17,30.05,29.97,10,10,10,23,10,31,0.00,2,,192
2012-11-23,55,42,28,42,26,21,76,58,42,30.44,30.38,30.19,10,10,10,23,12,30,0.00,1,,331
2012-11-24,51,37,23,22,20,17,86,57,27,30.43,30.27,30.05,10,9,2,10,3,,0.00,0,,180
2012-11-25,62,50,37,35,30,23,76,53,35,30.04,29.95,29.86,10,10,10,15,7,20,0.00,0,,202
2012-11-26,52,44,33,47,39,27,100,85,62,30.35,30.08,29.91,10,8,2,22,7,30,0.02,6,Rain,29
2012-11-27,46,35,24,28,25,23,96,74,42,30.47,30.38,30.32,10,10,7,8,5,,0.00,0,,37
2012-11-28,55,40,26,32,28,23,92,68,37,30.46,30.35,30.23,10,10,9,10,2,,0.00,0,,171
2012-11-29,62,49,36,36,32,29,82,57,31,30.22,30.15,30.07,10,10,10,20,8,25,0.00,0,,183
2012-11-30,64,52,41,53,45,30,100,75,60,30.14,30.09,30.04,10,10,6,13,8,,0.00,0,,181